Find Starlink 31407

NORAD ID: 59250 Int'l Des: 2024-049 Owner: SPXS Country: US Constellation: starlink operational
LEOCIRCULAR

現在のビュー

3D地球を読み込み中...

About Starlink 31407

Starlink 31407 (NORAD 59250) is a starlink constellation satellite (v2 mini) launched Mar 16, 2024 by SPXS of US. It operates in LEO, CIRCULAR orbit with a mass of 730.00 kg.

Starlink 31407について

説明を読み込み中...

次回通過

Passes for default location (London). Set your location on the main map for personalized predictions.

高度履歴

Loading altitude history...

軌道要素

1 59250U 24049V 26160.21610379 .00000845 00000-0 40231-4 0 9995
2 59250 43.0058 335.4140 0001939 269.9321 90.1308 15.27576481126520
Epoch: Jun 9, 2026 • Age: 31 hours

現在のステータス

高度 482.6 km
速度 7.63 km/s
衛星直下点 6.76°N, 65.96°E
打ち上げ日 Mar 16, 2024
運用期間 2.2 years
タイプ internet

技術仕様

分類 Payload
質量 730.00 kg
乾燥質量 700.00 kg
総質量 730.00 kg
長さ 0.30 m
直径 4.10 m
スパン 29.00 m
形状 Box + pan
製造者 SPXS
バスタイプ Starlink V2M
フェーズステータス In Orbit
所有者/国 SPXS/US

Most Searched